Left ArrowRight Arrow

Hourly Observations for January 20, 2016

Temp ( °F °C ) Dew Point ( °F °C ) Humidity (%) Winds ( mph kmh ) Pressure ( in mb ) Visibility ( mi km ) Precip ( " mm )
12:38 am 00:38 Cloudy 18 -8 14 -10 86 86 ESE 7 11 30.33 1027 10 16 0.00 0.00
12:44 am 00:44 Cloudy with Light Snow 18 -8 14 -10 86 86 ESE 7 11 30.33 1027 10 16 0.00 0.00
12:51 am 00:51 Cloudy 18 -8 14 -10 86 86 ESE 6 9 30.33 1027 10 16 0.00 0.00
12:58 am 00:58 Cloudy 17 -8.3 13 -10.4 85 85 ESE 7 11 30.29 1026 10 16 0.00 0.03
1:58 am 01:58 Cloudy 17 -8.2 14 -10.1 86 86 ESE 7 11 30.27 1025 10 16 0.00 0.00
2:58 am 02:58 Cloudy 18 -8 14 -9.8 87 87 SE 6 9 30.25 1025 10 16 0.00 0.00
3:58 am 03:58 Cloudy 18 -7.8 15 -9.6 87 87 SE 6 9 30.25 1025 10 16 0.00 0.00
4:58 am 04:58 Cloudy 18 -7.6 15 -9.2 88 88 SE 6 9 30.23 1024 10 16 0.00 0.00
5:58 am 05:58 Cloudy 19 -7.4 16 -8.9 89 89 SE 6 9 30.23 1024 10 16 0.00 0.00
6:58 am 06:58 Cloudy 19 -7.1 16 -8.8 88 88 SE 7 11 30.23 1024 10 16 0.00 0.00
7:58 am 07:58 Cloudy 20 -6.9 17 -8.6 88 88 SE 7 11 30.24 1024 10 16 0.00 0.00
8:58 am 08:58 Cloudy 20 -6.8 17 -8.4 89 89 SE 7 11 30.23 1024 10 16 0.00 0.00
9:56 am 09:56 Cloudy 21 -6 18 -8 86 86 ESE 8 13 30.27 1025 10 16 0.00 0.00
10:58 am 10:58 Cloudy 22 -5.7 18 -8 84 84 SE 10 17 30.22 1024 10 16 0.00 0.00
11:58 am 11:58 Cloudy 23 -4.8 19 -7.5 82 82 SE 9 15 30.20 1023 10 16 0.00 0.00
12:58 pm 12:58 Cloudy 24 -4.2 19 -7.1 80 80 ESE 12 19 30.17 1022 10 16 0.00 0.00
1:58 pm 13:58 Cloudy 25 -3.8 20 -6.8 80 80 SE 12 19 30.14 1021 10 16 0.00 0.00
2:04 pm 14:04 Cloudy 25 -4 19 -7 80 80 SE 13 20 30.15 1021 10 16 0.00 0.00
2:58 pm 14:58 Cloudy 25 -3.7 20 -6.5 81 81 SE 12 19 30.14 1021 10 16 0.00 0.00
3:20 pm 15:20 Cloudy 25 -4 21 -6 86 86 ESE 10 17 30.15 1021 10 16 0.00 0.00
3:58 pm 15:58 Cloudy 26 -3.5 21 -6.3 81 81 ESE 9 15 30.14 1021 10 16 0.00 0.00
4:58 pm 16:58 Cloudy 25 -3.7 21 -6.1 84 84 ESE 9 15 30.14 1021 10 16 0.00 0.00
5:58 pm 17:58 Cloudy 25 -3.9 21 -6.2 84 84 ESE 9 15 30.15 1021 10 16 0.00 0.00
6:58 pm 18:58 Cloudy 25 -4.1 20 -6.4 84 84 ESE 9 15 30.16 1021 10 16 0.00 0.00
7:58 pm 19:58 Clear 24 -4.6 20 -6.9 84 84 ESE 9 15 30.17 1022 10 16 0.00 0.00
8:58 pm 20:58 Cloudy 24 -4.7 19 -7.1 84 84 ESE 9 15 30.18 1022 10 16 0.00 0.00
9:17 pm 21:17 Cloudy 23 -5 19 -7 86 86 ESE 7 11 30.21 1023 10 16 0.00 0.00
9:58 pm 21:58 Cloudy 24 -4.7 19 -7.3 82 82 ESE 7 11 30.19 1022 10 16 0.00 0.00
10:58 pm 22:58 Cloudy 23 -4.8 18 -7.6 81 81 E 6 9 30.21 1023 10 16 0.00 0.00
11:49 pm 23:49 Partly Cloudy 23 -5 18 -8 80 80 E 7 11 30.24 1024 10 16 0.00 0.00
11:58 pm 23:58 Mostly Clear 22 -5.3 18 -7.9 82 82 E 7 11 30.21 1023 10 16 0.00 0.00

Powered by Vaisala Xweather